Meteo orario Al Khums

Oggi, 1 Novenbre, Domenica

Tempo Temperatura Precipitazioni Vento Pressione Umidità
00:00 +21°C° 0 mm 2 m/s 764 mm Hg 67%
01:00 +20°C° 0 mm 2 m/s 764 mm Hg 68%
02:00 +20°C° 0 mm 2 m/s 764 mm Hg 68%
03:00 +20°C° 0 mm 2 m/s 764 mm Hg 69%
04:00 +20°C° 0 mm 2 m/s 764 mm Hg 69%
05:00 +20°C° 0 mm 2 m/s 764 mm Hg 70%
06:00 +20°C° 0 mm 2 m/s 764 mm Hg 71%
07:00 +20°C° 0 mm 2 m/s 765 mm Hg 72%
08:00 +21°C° 0 mm 2 m/s 765 mm Hg 68%
09:00 +22°C° 0 mm 3 m/s 765 mm Hg 64%
10:00 +22°C° 0 mm 3 m/s 766 mm Hg 61%
11:00 +24°C° 0 mm 3 m/s 765 mm Hg 59%
12:00 +24°C° 0 mm 3 m/s 765 mm Hg 56%
13:00 +24°C° 0 mm 3 m/s 765 mm Hg 54%
14:00 +24°C° 0 mm 3 m/s 764 mm Hg 54%
15:00 +24°C° 0 mm 3 m/s 764 mm Hg 55%
16:00 +24°C° 0 mm 3 m/s 764 mm Hg 55%
17:00 +22°C° 0 mm 3 m/s 764 mm Hg 58%
18:00 +22°C° 0 mm 3 m/s 765 mm Hg 60%
19:00 +23°C° 0 mm 2 m/s 765 mm Hg 63%
20:00 +21°C° 0 mm 2 m/s 765 mm Hg 64%
21:00 +21°C° 0 mm 2 m/s 766 mm Hg 66%
22:00 +21°C° 0 mm 2 m/s 766 mm Hg 67%
23:00 +21°C° 0 mm 1 m/s 766 mm Hg 69%

Domani, 2 Novenbre, Lunedi

Tempo Temperatura Precipitazioni Vento Pressione Umidità
00:00 +21°C° 0 mm 1 m/s 766 mm Hg 70%
01:00 +21°C° 0 mm 1 m/s 765 mm Hg 72%
02:00 +20°C° 0 mm 1 m/s 765 mm Hg 72%
03:00 +20°C° 0 mm 1 m/s 765 mm Hg 73%
04:00 +20°C° 0 mm 1 m/s 765 mm Hg 74%
05:00 +20°C° 0 mm 1 m/s 765 mm Hg 74%
06:00 +20°C° 0 mm 1 m/s 766 mm Hg 74%
07:00 +20°C° 0 mm 1 m/s 766 mm Hg 74%
08:00 +21°C° 0 mm 1 m/s 766 mm Hg 68%
09:00 +20°C° 0 mm 0 m/s 766 mm Hg 63%
10:00 +21°C° 0 mm 0 m/s 767 mm Hg 57%
11:00 +24°C° 0 mm 1 m/s 766 mm Hg 53%
12:00 +25°C° 0 mm 1 m/s 766 mm Hg 50%
13:00 +25°C° 0 mm 1 m/s 766 mm Hg 47%
14:00 +25°C° 0 mm 2 m/s 766 mm Hg 48%
15:00 +25°C° 0 mm 2 m/s 765 mm Hg 50%
16:00 +25°C° 0 mm 3 m/s 765 mm Hg 51%
17:00 +24°C° 0 mm 3 m/s 765 mm Hg 55%
18:00 +22°C° 0 mm 3 m/s 766 mm Hg 58%
19:00 +22°C° 0 mm 3 m/s 766 mm Hg 61%
20:00 +22°C° 0 mm 3 m/s 766 mm Hg 62%
21:00 +21°C° 0 mm 3 m/s 766 mm Hg 64%
22:00 +21°C° 0 mm 2 m/s 766 mm Hg 65%
23:00 +21°C° 0 mm 2 m/s 766 mm Hg 67%

Dopodomani, 3 Novenbre, Martedi

Tempo Temperatura Precipitazioni Vento Pressione Umidità
00:00 +20°C° 0 mm 3 m/s 766 mm Hg 68%
01:00 +20°C° 0 mm 3 m/s 766 mm Hg 70%
02:00 +20°C° 0 mm 3 m/s 765 mm Hg 71%
03:00 +19°C° 0 mm 3 m/s 765 mm Hg 73%
04:00 +19°C° 0 mm 3 m/s 765 mm Hg 74%
05:00 +19°C° 0 mm 3 m/s 765 mm Hg 74%
06:00 +19°C° 0 mm 4 m/s 765 mm Hg 74%
07:00 +19°C° 0 mm 4 m/s 765 mm Hg 73%
08:00 +20°C° 0 mm 3 m/s 766 mm Hg 65%
09:00 +22°C° 0 mm 3 m/s 766 mm Hg 57%
10:00 +25°C° 0 mm 2 m/s 766 mm Hg 49%
11:00 +25°C° 0 mm 2 m/s 766 mm Hg 46%
12:00 +26°C° 0 mm 2 m/s 765 mm Hg 43%
13:00 +26°C° 0 mm 1 m/s 765 mm Hg 40%
14:00 +26°C° 0 mm 2 m/s 765 mm Hg 44%
15:00 +25°C° 0 mm 3 m/s 764 mm Hg 49%
16:00 +25°C° 0 mm 4 m/s 764 mm Hg 53%
17:00 +24°C° 0 mm 3 m/s 764 mm Hg 56%
18:00 +24°C° 0 mm 3 m/s 764 mm Hg 58%
19:00 +23°C° 0 mm 2 m/s 764 mm Hg 61%
20:00 +23°C° 0 mm 2 m/s 765 mm Hg 63%
21:00 +22°C° 0 mm 1 m/s 765 mm Hg 64%
22:00 +22°C° 0 mm 1 m/s 765 mm Hg 66%
23:00 +22°C° 0 mm 1 m/s 765 mm Hg 66%

4 Novenbre, Mercoledi

Tempo Temperatura Precipitazioni Vento Pressione Umidità
00:00 +21°C° 0 mm 2 m/s 764 mm Hg 67%
01:00 +20°C° 0 mm 2 m/s 764 mm Hg 68%
02:00 +20°C° 0 mm 3 m/s 764 mm Hg 68%
03:00 +20°C° 0 mm 3 m/s 764 mm Hg 69%
04:00 +20°C° 0 mm 3 m/s 763 mm Hg 70%
05:00 +19°C° 0 mm 3 m/s 763 mm Hg 69%
06:00 +19°C° 0 mm 3 m/s 763 mm Hg 68%
07:00 +19°C° 0 mm 3 m/s 763 mm Hg 67%
08:00 +21°C° 0 mm 3 m/s 764 mm Hg 59%
09:00 +22°C° 0 mm 3 m/s 764 mm Hg 51%
10:00 +25°C° 0 mm 3 m/s 764 mm Hg 42%
11:00 +26°C° 0 mm 2 m/s 764 mm Hg 40%
12:00 +26°C° 0 mm 2 m/s 763 mm Hg 38%
13:00 +27°C° 0 mm 2 m/s 763 mm Hg 35%
14:00 +26°C° 0 mm 3 m/s 762 mm Hg 40%
15:00 +26°C° 0 mm 3 m/s 762 mm Hg 45%
16:00 +25°C° 0 mm 4 m/s 762 mm Hg 49%
17:00 +25°C° 0 mm 4 m/s 762 mm Hg 54%
18:00 +23°C° 0 mm 4 m/s 762 mm Hg 59%
19:00 +22°C° 0 mm 4 m/s 763 mm Hg 64%
20:00 +22°C° 0 mm 4 m/s 763 mm Hg 65%
21:00 +22°C° 0 mm 4 m/s 763 mm Hg 67%
22:00 +22°C° 0 mm 4 m/s 763 mm Hg 69%
23:00 +21°C° 0 mm 4 m/s 763 mm Hg 70%

5 Novenbre, Giovedi

Tempo Temperatura Precipitazioni Vento Pressione Umidità
00:00 +21°C° 0 mm 4 m/s 763 mm Hg 72%
01:00 +20°C° 0 mm 4 m/s 763 mm Hg 74%
02:00 +20°C° 0 mm 4 m/s 763 mm Hg 75%
03:00 +20°C° 0 mm 4 m/s 763 mm Hg 76%
04:00 +20°C° 0 mm 5 m/s 763 mm Hg 77%
05:00 +19°C° 0 mm 4 m/s 763 mm Hg 71%
06:00 +19°C° 0 mm 4 m/s 763 mm Hg 66%
07:00 +19°C° 0 mm 4 m/s 763 mm Hg 60%
08:00 +21°C° 0 mm 4 m/s 764 mm Hg 52%
09:00 +24°C° 0 mm 3 m/s 764 mm Hg 43%
10:00 +25°C° 0 mm 3 m/s 764 mm Hg 35%
11:00 +26°C° 0 mm 3 m/s 764 mm Hg 34%
12:00 +27°C° 0 mm 3 m/s 764 mm Hg 33%
13:00 +28°C° 0 mm 3 m/s 764 mm Hg 32%
14:00 +27°C° 0 mm 4 m/s 763 mm Hg 39%
15:00 +26°C° 0 mm 5 m/s 763 mm Hg 46%
16:00 +24°C° 0 mm 6 m/s 763 mm Hg 53%
17:00 +24°C° 0 mm 6 m/s 763 mm Hg 60%
18:00 +23°C° 0 mm 5 m/s 764 mm Hg 67%
19:00 +22°C° 0 mm 5 m/s 764 mm Hg 74%
20:00 +22°C° 0 mm 4 m/s 764 mm Hg 75%
21:00 +22°C° 0 mm 4 m/s 764 mm Hg 76%
22:00 +21°C° 0 mm 3 m/s 765 mm Hg 77%
23:00 +21°C° 0 mm 3 m/s 765 mm Hg 78%

6 Novenbre, Venerdi

Tempo Temperatura Precipitazioni Vento Pressione Umidità
00:00 +20°C° 0 mm 2 m/s 764 mm Hg 79%
01:00 +20°C° 0 mm 2 m/s 764 mm Hg 80%
02:00 +20°C° 0 mm 2 m/s 764 mm Hg 81%
03:00 +20°C° 0 mm 1 m/s 764 mm Hg 82%
04:00 +20°C° 0 mm 1 m/s 764 mm Hg 84%
05:00 +20°C° 0 mm 1 m/s 764 mm Hg 83%
06:00 +20°C° 0 mm 1 m/s 764 mm Hg 83%
07:00 +20°C° 0 mm 1 m/s 764 mm Hg 83%
08:00 +21°C° 0 mm 1 m/s 764 mm Hg 76%
09:00 +22°C° 0 mm 1 m/s 765 mm Hg 70%
10:00 +23°C° 0 mm 1 m/s 765 mm Hg 63%
11:00 +24°C° 0 mm 2 m/s 764 mm Hg 59%
12:00 +24°C° 0 mm 2 m/s 764 mm Hg 56%
13:00 +25°C° 0 mm 2 m/s 764 mm Hg 52%
14:00 +24°C° 0 mm 3 m/s 764 mm Hg 54%
15:00 +24°C° 0 mm 3 m/s 764 mm Hg 57%
16:00 +24°C° 0 mm 3 m/s 764 mm Hg 59%
17:00 +22°C° 0 mm 3 m/s 764 mm Hg 60%
18:00 +22°C° 0 mm 3 m/s 764 mm Hg 62%
19:00 +21°C° 0 mm 3 m/s 764 mm Hg 64%
20:00 +21°C° 0 mm 3 m/s 764 mm Hg 66%
21:00 +21°C° 0 mm 2 m/s 764 mm Hg 68%
22:00 +20°C° 0 mm 2 m/s 765 mm Hg 69%
23:00 +20°C° 0 mm 2 m/s 764 mm Hg 72%
Mostrare altro

Abbiamo bisogno del tuo consenso

Meteoprog e i nostri fornitori di servizi possono memorizzare e accedere a dati personali come cookie, identificatori di dispositivi o altre tecnologie simili sul tuo dispositivo e possono elaborare tali dati per personalizzare i contenuti e gli annunci, nonché fornire funzionalità dei social media e analizzarne il traffico.

  • Archiviare e/o accedere alle informazioni sul tuo dispositivo

    Cookie, identificatori di dispositivi o altre informazioni possono essere memorizzati o resi accessibili sul tuo dispositivo per le finalità sopra indicate.

  • Annunci e contenuti personalizzati, misurazione di annunci e contenuti, approfondimenti sul pubblico e sviluppo di prodotti

    Gli annunci e i contenuti possono essere personalizzati in base a un profilo. È possibile aggiungere più dati per personalizzare meglio annunci e contenuti. È possibile misurare il rendimento degli annunci e dei contenuti. È possibile ricavare informazioni sul pubblico che ha visto gli annunci e i contenuti. Tali dati possono essere utilizzati per sviluppare o migliorare l'esperienza, i sistemi e il software dell'utente.

Cliccando su “Accetto”, acconsenti all'uso di cookie, identificatori di dispositivo, web beacon o altre tecnologie simili. Puoi modificare le impostazioni nel browser del tuo dispositivo.

Per determinati scopi, è possibile fare affidamento su interessi legali, piuttosto che sul consenso. Puoi approfondire questo argomento consultando la nostra Informativa sulla privacy e sui cookie.